Flag for U.S.A. Weather past 2 weeks in Port St. Lucie, Florida, U.S.A.

Now
81 °F

Clear.


Feels Like: 85 °F
Forecast: 76 / 89 °F
Wind: 7 mph from South

Location: Witham Field Airport

Current Time: Jul 23, 2014 at 11:02:41 PM

Latest Report: Jul 23, 2014 at 10:35 PM


Visibility: 10 mi

Pressure: 30.06 "Hg

Humidity: 79%

Dew point: 73 °F

Location of Port St. LucieLocation

Historic Weather in Port St. Lucie — Graph

°F

Port St. Lucie temperature yesterday

Maximum temperature yesterday: 86 °F (at 10:47 AM)
Minimum temperature yesterday: 73 °F (at 6:15 AM)
Average temperature yesterday: 78 °F

Past Weeks' High & Low Weather Summary

 TemperatureHumidityPressure
High91 °F (Jul 11, 10:47 AM)100% (Jul 8, 9:55 PM)30.17 "Hg (Jul 8, 9:55 PM)
Low72 °F (Jul 8, 9:55 PM)52% (Jul 10, 2:47 PM)29.97 "Hg (Jul 16, 4:47 PM)
Average80 °F82%30.06 "Hg
* Reported Jul 8 9:55 PM — Jul 23 9:55 PM, Port St. Lucie, Weather by CustomWeather, © 2014

Note: Actual official high and low records may vary slightly from our data, if they occured in-between our weather recording intervals... More about our weather records

Advertising

Port St. Lucie weather history for previous 24 hours

 ConditionsComfort  
Time TempWeatherWind HumidityBarometerVisibility
9:55 PM
Jul 23
81 °FClear.5 mph84%30.06 "Hg10 mi
9:35 PM81 °FClear.6 mph84%30.05 "Hg10 mi
8:55 PM81 °FSunny.7 mph79%30.05 "Hg10 mi
8:35 PM82 °FSunny.7 mph74%30.05 "Hg10 mi
8:15 PM82 °FSunny.6 mph74%30.05 "Hg10 mi
6:47 PM86 °FScattered clouds.14 mph66%30.03 "Hg7 mi
5:47 PM84 °FBroken clouds.12 mph74%30.04 "Hg7 mi
4:47 PM86 °FBroken clouds.7 mph66%30.05 "Hg7 mi
3:47 PM88 °FBroken clouds.8 mph62%30.07 "Hg7 mi
2:47 PM86 °FBroken clouds.8 mph66%30.08 "Hg7 mi
1:47 PM84 °FBroken clouds.9 mph74%30.10 "Hg7 mi
12:47 PM81 °FThundershowers. Broken clouds.12 mph84%30.11 "Hg7 mi
11:47 AM84 °FThundershowers. Broken clouds.8 mph74%30.10 "Hg7 mi
10:47 AM84 °FBroken clouds.5 mph74%30.10 "Hg10 mi
9:47 AM82 °FBroken clouds.7 mph84%30.10 "Hg10 mi
8:47 AM81 °FScattered clouds.6 mph89%30.10 "Hg10 mi
12:35 AM75 °FClear.No wind94%30.09 "Hg10 mi
12:15 AM75 °FClear.No wind94%30.10 "Hg10 mi
11:55 PM
Jul 22
75 °FClear.No wind94%30.10 "Hg10 mi
11:35 PM75 °FClear.No wind94%30.10 "Hg10 mi
11:15 PM75 °FClear.No wind94%30.09 "Hg10 mi
Weather by CustomWeather, © 2014

See weather overviewHow to use our weather pages